Location: Byszew
(52.1813°N, 19.2693°E)
Time: 19:46:45
(UTC+00:00)

CAS-4B - Pass Details

Date: 09 July 2022
Orbit: 522 x 536 km, 43.0° (Epoch: 08 August)

Event Time Altitude Azimuth Distance (km) Brightness Sun altitude
Exits shadow 23:22:39 12° 132° (SE) 1,619 ? -15.2°
Drops below altitude 10° 23:23:06 10° 127° (SE) 1,755 ? -15.2°
Sets 23:25:40 0° 112° (ESE) 2,645 ? -15.1°
